[[{"header":{"parameterUnit":"m.s-1","parameterCategory":1,"la1":30.2991,"la2":30.254,"lo1":-89.0895,"lo2":-89.0444,"dy":0.0017,"dx":0.0017,"nx":28,"ny":28,"refTime":"2024-03-07T09:00:00:Z","depth":0,"parameterNumber":2,"parameterNumberName":"U-component_of_WINDS"},"data":[0,0,0,0,0,0,0,0,0,0,0,0,0,0,0,0,0,0,0,0,0,0,0,0,0,0,0,0,0,0,0,0,0,0,0,0,0,0,0,0,0,0,0,0,0,0,0,0,0,0,0,0,0,0,0,0,0,0,-2.0226,-2.0228,0,-2.038,-2.0381,-2.0383,-2.0468,-2.0468,-2.0468,-2.0468,-2.0626,-2.063,-2.0634,0,0,0,0,0,0,0,0,0,0,0,0,0,-2.0005,-2.0008,-2.0226,-2.0228,-2.023,-2.0379,-2.0381,-2.0384,-2.0467,-2.0468,-2.0468,-2.0468,-2.0625,-2.063,-2.0634,0,0,0,0,0,0,0,0,0,0,0,0,0,-2.0124,-2.001,-2.0226,-2.029,-2.0297,-2.0379,-2.0382,-2.0384,-2.0467,-2.0468,-2.0468,-2.0468,-2.0623,-2.0629,-2.0635,-2.0665,0,0,-2.0653,-2.0656,0,0,0,0,0,0,0,0,-2.0117,-2.0132,-2.0278,-2.0285,-2.0294,-2.0405,-2.0362,-2.0478,-2.0467,-2.0403,-2.0468,-2.0469,-2.0552,-2.0564,-2.0592,-2.0673,-2.0679,-2.0654,-2.0658,-2.066,-2.0662,0,0,0,0,0,0,0,-2.0109,-2.0126,-2.0287,-2.028,-2.029,-2.0311,-2.0328,-2.0384,-2.0474,-2.0408,-2.0415,-2.0432,-2.0557,-2.0586,-2.0597,-2.0682,-2.0654,-2.0659,-2.0663,-2.0665,-2.0793,-2.0793,0,0,0,0,0,0,-2.009,-2.0118,-2.0282,-2.0291,-2.0204,-2.0314,-2.0334,-2.0369,-2.0473,-2.049,-2.0431,-2.0435,-2.0576,-2.0589,-2.0602,-2.0644,-2.066,-2.0666,-2.0669,-2.0793,-2.0793,-2.0793,0,0,0,0,0,0,-2.0085,-2.0104,-2.0276,-2.0207,-2.023,-2.0318,-2.0357,-2.0372,-2.0401,-2.0491,-2.0507,-2.0445,-2.0577,-2.0594,-2.0649,-2.065,-2.0668,-2.0674,-2.0794,-2.0793,-2.0793,-2.0727,0,0,0,0,0,0,-2.0078,-2.0102,-2.0114,-2.0206,-2.0233,-2.0319,-2.0357,-2.0374,-2.0411,-2.0418,-2.0508,-2.0523,-2.0578,-2.0639,-2.0655,-2.0659,-2.0678,-2.0794,-2.0794,-2.0793,-2.0729,-2.0724,-2.072,0,0,0,0,0,-2.007,-2.009,-2.0114,-2.0134,-2.0251,-2.0319,-2.0335,-2.0397,-2.0411,-2.0424,-2.0482,-2.0521,-2.0648,-2.0644,-2.0662,-2.0668,-2.0794,-2.0794,-2.0793,-2.0731,-2.0725,-2.072,0,0,0,0,0,0,-1.9996,-2.0103,-2.0132,-2.0182,-2.0241,-2.0333,-2.0352,-2.0389,-2.0446,-2.0449,-2.0525,-2.0544,-2.0591,-2.0636,-2.063,-2.0702,-2.0725,-2.0728,-2.0672,-2.0667,-2.0662,-2.065,-2.0683,0,0,0,0,0,-1.9986,-2.0032,-2.0123,-2.0159,-2.0187,-2.0264,-2.0296,-2.0339,-2.0403,-2.0428,-2.049,-2.0551,-2.0604,-2.0638,-2.0693,-2.0736,-2.0756,-2.0749,-2.0744,-2.074,-2.0742,-2.0767,-2.0764,-2.0792,-2.0792,-2.0792,0,0,-1.9965,-2.0029,-2.0054,-2.0145,-2.0196,-2.0242,-2.0284,-2.0332,-2.0366,-2.0436,-2.0491,-2.0537,-2.061,-2.0659,-2.0684,-2.0697,-2.0739,-2.074,-2.0736,-2.074,-2.0766,-2.0763,-2.0761,-2.0791,-2.0791,-2.0791,0,0,-1.9949,-2.0003,-2.0038,-2.0087,-2.0163,-2.0214,-2.0222,-2.0309,-2.0343,-2.0399,-2.0451,-2.0494,-2.0585,-2.0634,-2.0671,-2.0673,-2.071,-2.0688,-2.0664,-2.0687,-2.0685,-2.0684,-2.0683,-2.0682,-2.069,-2.069,-2.069,0,-1.9914,-1.9985,-2.0051,-2.0095,-2.0133,-2.0197,-2.0232,-2.0277,-2.0367,-2.0392,-2.0406,-2.052,-2.0574,-2.0635,-2.0634,-2.0663,-2.0674,-2.0678,-2.068,-2.0679,-2.0679,-2.0679,-2.0679,-2.0686,-2.0687,-2.0687,-2.0687,0,-1.9936,-1.9985,-2.0004,-2.0088,-2.0129,-2.0168,-2.0239,-2.0272,-2.0311,-2.036,-2.0416,-2.0482,-2.055,-2.0568,-2.0607,-2.0634,-2.064,-2.0666,-2.069,-2.0672,-2.0673,-2.0674,-2.0682,-2.0683,-2.0684,-2.0685,0,0,-1.988,-1.9999,-2.0004,-2.0043,-2.013,-2.0169,-2.0211,-2.0277,-2.0303,-2.0362,-2.0399,-2.0473,-2.0498,-2.054,-2.0585,-2.0605,-2.06,-2.0629,-2.0632,-2.062,-2.0632,-2.0611,-2.061,-2.0626,-2.0626,-2.0626,-2.0625,0,-1.9876,-1.9954,-2.0014,-2.0068,-2.0113,-2.0174,-2.021,-2.0268,-2.0314,-2.0359,-2.0411,-2.0462,-2.0492,-2.0517,-2.054,-2.0596,-2.0603,-2.0597,-2.066,-2.0661,-2.0638,-2.0611,-2.0589,-2.0585,-2.0627,-2.0627,-2.0627,0,-1.9883,-1.9939,-1.9998,-2.0079,-2.01,-2.0132,-2.0196,-2.0239,-2.0304,-2.0337,-2.0382,-2.0429,-2.0475,-2.0494,-2.0559,-2.0553,-2.0582,-2.0613,-2.0614,-2.0622,-2.0642,-2.0617,-2.0586,-2.0584,-2.0629,-2.0628,-2.0628,0,-1.9834,-1.9925,-1.9971,-2.0002,-2.0099,-2.0119,-2.016,-2.0226,-2.0262,-2.0318,-2.0342,-2.0403,-2.0436,-2.0482,-2.0543,-2.0552,-2.06,-2.0626,-2.0628,-2.0626,-2.0635,-2.0633,-2.0607,-2.0655,-2.0655,-2.0655,-2.0655,0,-1.9824,-1.9857,-1.995,-1.9978,-2.0017,-2.0085,-2.0122,-2.0168,-2.0226,-2.0264,-2.0321,-2.0356,-2.0435,-2.0479,-2.0527,-2.0572,-2.0587,-2.0614,-2.0626,-2.0608,-2.0605,-2.0628,-2.0629,-2.0655,-2.0655,-2.0655,-2.0655,0,-1.9776,-1.9839,-1.9894,-1.998,-2.0003,-2.0027,-2.0101,-2.0131,-2.018,-2.0227,-2.0242,-2.032,-2.0375,-2.044,-2.0517,-2.0549,-2.0589,-2.0608,-2.0566,-2.0573,-2.0571,-2.0569,-2.0558,-2.0559,-2.0606,-2.0606,-2.0606,0,-1.9764,-1.9791,-1.988,-1.9909,-1.9948,-1.9995,-2.0031,-2.0099,-2.0134,-2.021,-2.023,-2.0288,-2.0339,-2.0423,-2.0486,-2.0544,-2.0565,-2.0556,-2.0574,-2.0554,-2.0563,-2.056,-2.0562,-2.0551,-2.055,-2.055,-2.0549,0,-1.9737,-1.9767,-1.9816,-1.9876,-1.9917,-1.9968,-2.0021,-2.0042,-2.012,-2.0156,-2.0212,-2.0251,-2.0328,-2.0385,-2.0451,-2.0494,-2.0534,-2.0543,-2.0547,-2.0528,-2.0502,-2.0515,-2.0552,-2.0543,-2.0544,-2.0544,-2.0545,-2.0545,-1.9707,-1.9732,-1.9798,-1.9851,-1.9898,-1.9945,-1.9977,-2.0029,-2.0077,-2.0144,-2.0182,-2.0236,-2.03,-2.0393,-2.0433,-2.0477,-2.0491,-2.0497,-2.0498,-2.0498,-2.0491,-2.0496,-2.0489,-2.049,-2.049,-2.049,-2.049,0,-1.9681,-1.9726,-1.9774,-1.9845,-1.9886,-1.992,-1.998,-2.0012,-2.0059,-2.0116,-2.0163,-2.0227,-2.0282,-2.0349,-2.0409,-2.043,-2.045,-2.0444,-2.0442,-2.0451,-2.0476,-2.0466,-2.0426,-2.0426,-2.0426,-2.0426,-2.0426,-2.0426,-1.9672,-1.9717,-1.9755,-1.9823,-1.9868,-1.9921,-1.9952,-1.9996,-2.0041,-2.0109,-2.0155,-2.0198,-2.0258,-2.0322,-2.0374,-2.0392,-2.0411,-2.0398,-2.0422,-2.0444,-2.0449,-2.0455,-2.0446,-2.0402,-2.0402,-2.0393,-2.0393,-2.0393]},{"header":{"parameterUnit":"m.s-1","parameterCategory":1,"la1":30.2991,"la2":30.254,"lo1":-89.0895,"lo2":-89.0444,"dy":0.0017,"dx":0.0017,"nx":28,"ny":28,"refTime":"2024-03-07T09:00:00:Z","depth":0,"parameterNumber":3,"parameterNumberName":"V-component_of_WINDS"},"data":[0,0,0,0,0,0,0,0,0,0,0,0,0,0,0,0,0,0,0,0,0,0,0,0,0,0,0,0,0,0,0,0,0,0,0,0,0,0,0,0,0,0,0,0,0,0,0,0,0,0,0,0,0,0,0,0,0,0,6.2656,6.2656,0,6.2721,6.2722,6.2722,6.2692,6.269,6.2688,6.2687,6.2748,6.2752,6.2755,0,0,0,0,0,0,0,0,0,0,0,0,0,6.2502,6.2505,6.2656,6.2656,6.2657,6.2721,6.2722,6.2723,6.2692,6.269,6.2688,6.2686,6.2747,6.2751,6.2755,0,0,0,0,0,0,0,0,0,0,0,0,0,6.2568,6.2506,6.2655,6.265,6.265,6.2721,6.2722,6.2723,6.2692,6.269,6.2687,6.2685,6.2746,6.2751,6.2755,6.2834,0,0,6.277,6.2772,0,0,0,0,0,0,0,0,6.2565,6.2574,6.265,6.265,6.2651,6.2696,6.269,6.276,6.2693,6.2676,6.2687,6.2684,6.2733,6.2738,6.2756,6.2837,6.284,6.277,6.2773,6.2775,6.2777,0,0,0,0,0,0,0,6.256,6.2571,6.2681,6.2651,6.2651,6.2643,6.265,6.2703,6.2717,6.2677,6.2675,6.2684,6.2732,6.2751,6.2757,6.2841,6.277,6.2775,6.2778,6.2779,6.2995,6.2997,0,0,0,0,0,0,6.2556,6.2567,6.2679,6.2683,6.2601,6.2648,6.2655,6.2684,6.2716,6.2719,6.2686,6.2682,6.2744,6.2751,6.2759,6.2857,6.2775,6.278,6.2783,6.2992,6.2995,6.2998,0,0,0,0,0,0,6.2553,6.2566,6.2677,6.2625,6.2638,6.2653,6.2685,6.2686,6.2705,6.2723,6.2725,6.2703,6.2743,6.2752,6.2817,6.2858,6.2782,6.2786,6.2989,6.2993,6.2997,6.3051,0,0,0,0,0,0,6.2549,6.2565,6.2596,6.2626,6.2641,6.2734,6.2688,6.2689,6.2714,6.271,6.2739,6.2742,6.2741,6.281,6.2822,6.2863,6.279,6.2985,6.2991,6.2996,6.3045,6.3056,6.3066,0,0,0,0,0,6.2543,6.2606,6.2597,6.2611,6.268,6.2737,6.2745,6.2745,6.2717,6.2748,6.276,6.2741,6.2852,6.2817,6.283,6.2874,6.2982,6.2989,6.2995,6.3041,6.3054,6.3065,0,0,0,0,0,0,6.2577,6.261,6.26,6.2675,6.2704,6.2731,6.277,6.2758,6.2794,6.2788,6.2785,6.2792,6.286,6.2873,6.2834,6.2954,6.2913,6.2922,6.2943,6.2956,6.2966,6.2962,6.2794,0,0,0,0,0,6.2594,6.2639,6.2664,6.2727,6.2743,6.2754,6.2779,6.2777,6.2806,6.2817,6.2833,6.2861,6.2903,6.293,6.2968,6.3047,6.3055,6.3084,6.3094,6.3102,6.311,6.3157,6.3171,6.302,6.302,6.3019,0,0,6.2627,6.2651,6.2678,6.2735,6.2757,6.2804,6.2764,6.2814,6.2849,6.2824,6.2888,6.2901,6.2932,6.3005,6.3038,6.3018,6.3154,6.311,6.3117,6.3121,6.3165,6.3179,6.3192,6.3024,6.3023,6.3023,0,0,6.2713,6.2734,6.2792,6.2816,6.2851,6.2859,6.2873,6.2904,6.2913,6.2978,6.2961,6.3002,6.3072,6.3097,6.3118,6.3219,6.3203,6.3231,6.3284,6.333,6.3342,6.3352,6.3391,6.3405,6.3239,6.3239,6.3239,0,6.275,6.2821,6.2822,6.2875,6.2901,6.2884,6.2943,6.2966,6.3011,6.3029,6.3007,6.3099,6.3117,6.3198,6.3224,6.324,6.3257,6.3228,6.334,6.3351,6.3361,6.3398,6.3412,6.3243,6.3242,6.3242,6.3242,0,6.2866,6.2916,6.2957,6.3006,6.3037,6.3092,6.3102,6.3133,6.3129,6.314,6.3207,6.3231,6.3276,6.3295,6.3289,6.3376,6.3363,6.334,6.3299,6.3379,6.3413,6.3427,6.3248,6.3246,6.3245,6.3244,0,0,6.2972,6.3024,6.304,6.3063,6.3103,6.3141,6.3197,6.3244,6.3272,6.3305,6.3352,6.3415,6.3396,6.3421,6.3418,6.3458,6.3541,6.3431,6.3432,6.3453,6.3641,6.3659,6.3675,6.3531,6.3533,6.3536,6.3639,0,6.3062,6.3162,6.3167,6.3258,6.3306,6.3292,6.3341,6.3371,6.3384,6.3425,6.3438,6.3484,6.3454,6.3469,6.3508,6.3522,6.3579,6.3515,6.3576,6.3578,6.357,6.3693,6.3711,6.3808,6.3653,6.3655,6.3656,0,6.3181,6.3222,6.3318,6.3356,6.3376,6.342,6.3466,6.3506,6.3541,6.3547,6.3578,6.3571,6.3629,6.3586,6.3667,6.3624,6.3649,6.3661,6.3664,6.3671,6.3623,6.3705,6.3838,6.3854,6.3677,6.3675,6.3674,0,6.3252,6.3331,6.34,6.342,6.3465,6.3497,6.3517,6.355,6.3579,6.3619,6.3638,6.3683,6.3708,6.3743,6.375,6.3718,6.3832,6.3789,6.384,6.384,6.3865,6.3863,6.4006,6.3879,6.3878,6.3878,6.3878,0,6.3354,6.3414,6.3434,6.3476,6.3544,6.355,6.3616,6.3634,6.3664,6.371,6.37,6.3743,6.3748,6.3793,6.3798,6.3867,6.3877,6.3885,6.3886,6.3887,6.3886,6.3904,6.3898,6.3882,6.3881,6.388,6.388,0,6.3444,6.346,6.3535,6.3573,6.3585,6.3633,6.3666,6.3707,6.372,6.3779,6.3793,6.3813,6.3866,6.3876,6.3937,6.3941,6.4023,6.4016,6.4012,6.4012,6.4064,6.406,6.4224,6.4248,6.4103,6.4104,6.4105,0,6.3509,6.3556,6.3601,6.3633,6.3655,6.3705,6.3737,6.3745,6.3778,6.3824,6.3861,6.3913,6.3956,6.4041,6.406,6.4108,6.4104,6.4158,6.4111,6.4112,6.4108,6.4106,6.4112,6.4168,6.4169,6.417,6.4171,0,6.3622,6.3629,6.3676,6.3728,6.3767,6.3806,6.3844,6.387,6.3884,6.3921,6.3978,6.4011,6.4077,6.413,6.4179,6.4198,6.4188,6.4187,6.4202,6.4204,6.4201,6.4206,6.4039,6.4183,6.4181,6.4181,6.418,6.418,6.3703,6.3746,6.3787,6.384,6.3871,6.3908,6.395,6.397,6.4018,6.4074,6.4075,6.4137,6.4174,6.4239,6.4263,6.4311,6.4294,6.4314,6.432,6.4326,6.4332,6.4193,6.432,6.4319,6.4319,6.4319,6.4319,0,6.3819,6.3845,6.3895,6.3951,6.3994,6.3984,6.4026,6.4063,6.4118,6.4154,6.4198,6.4264,6.4317,6.4343,6.4395,6.4429,6.4426,6.4443,6.4441,6.4447,6.4343,6.4326,6.4445,6.4445,6.4445,6.4445,6.4445,6.4445,6.3884,6.3958,6.397,6.4059,6.4084,6.4147,6.4173,6.4208,6.4238,6.4313,6.4358,6.4375,6.4408,6.4464,6.4512,6.4518,6.4539,6.4559,6.4563,6.4466,6.4453,6.4441,6.4425,6.4563,6.4563,6.4663,6.4664,6.4664]}]]